Location: Breungeshain
(50.5000°N, 9.2000°E)
Time: 11:55:19
(UTC+00:00)

ISS - Pass Details

Date: 21 May 2018
Orbit: 402 x 407 km, 51.6° (Epoch: 26 May)

Event Time Altitude Azimuth Distance (km) Brightness Sun altitude
Rises 23:27:21 0° 275° (W) 2,319 0.1 -19.1°
Reaches altitude 10° 23:29:27 10° 277° (W) 1,459 -1.0 -19.1°
Maximum altitude 23:32:42 70° 2° (N) 433 -3.6 -19.1°
Drops below altitude 10° 23:35:58 10° 87° (E) 1,458 -0.9 -19.1°
Sets 23:38:03 0° 90° (E) 2,317 0.1 -19.1°
